Back to catalog

ATLAS 5 CENTAUR DEB

AliveHEO
NORAD 44647·DEBRIS·🇺🇸 United States

Launched Oct 17, 2018 from Cape Canaveral Space Force Station

Loading…

Next Passes (next 24 hours)

TLE

FreshSource: Space-Track

Epoch: Sep 5, 2026, 16:45 UTC

1 44647U 18079H   26248.69856183 -.00000163  00000-0  00000-0 0  9999
2 44647  13.5412  13.4955 4632318 359.2077   0.1564  1.88053275 54093

Track ATLAS 5 CENTAUR DEB in real time with AllMySat

Download on the App Store